GW2918 Weather Reports


Display with metric or nautical units.
time (UTC)temp
F
wind
direction
speed
MPH
gust
MPH
rain 1hr
in
rain 24hr
in
rain mn
in
humidity
%
barometer
mb
20260905031900 66 344 2.0 6.0 0.00 0.00 0.00 93 1015.4
20260905030857 66 345 2.0 5.0 0.00 0.00 0.00 92 1015.2
20260905025858 66 4 2.0 4.0 0.00 0.00 0.00 92 1015.1
20260905024856 66 339 3.0 3.0 0.00 0.00 0.00 91 1015.1
20260905023851 66 30 1.0 2.0 0.00 0.00 0.00 90 1015.5
20260905022851 66 102 0.0 3.0 0.00 0.00 0.00 89 1015.3
20260905021847 67 47 1.0 4.0 0.00 0.00 0.00 89 1015.3
20260905020843 67 11 2.0 4.0 0.00 0.00 0.00 88 1015.6
20260905015843 67 39 1.0 4.0 0.00 0.00 0.00 89 1015.4
20260905014842 67 357 2.0 4.0 0.00 0.00 0.00 90 1015.4
20260905013838 67 12 2.0 4.0 0.00 0.00 0.00 87 1015.4
20260905012835 68 349 2.0 5.0 0.00 0.00 0.00 86 1015.4
20260905011833 68 353 2.0 4.0 0.00 0.00 0.00 84 1015.3
20260905010828 68 0 2.0 4.0 0.00 0.00 0.00 83 1015.4
20260905005826 68 4 1.0 2.0 0.00 0.00 0.00 84 1015.6
20260905004821 68 28 2.0 2.0 0.00 0.00 0.00 87 1015.4
20260905003818 68 359 0.0 2.0 0.00 0.00 0.00 84 1015.4
20260905002814 68 73 1.0 3.0 0.00 0.00 0.00 84 1015.2
20260905001809 68 22 1.0 3.0 0.00 0.00 0.00 85 1014.9
20260905000804 68 47 1.0 2.0 0.00 0.00 0.00 86 1014.9
20260904235800 68 0 0.0 4.0 0.00 0.00 0.00 85 1014.9
20260904234756 68 269 0.0 3.0 0.00 0.00 0.00 86 1014.9
20260904233753 69 17 2.0 3.0 0.00 0.00 0.00 85 1014.7
20260904232751 69 340 1.0 2.0 0.00 0.00 0.00 87 1014.5
20260904231748 70 100 0.0 1.0 0.00 0.00 0.00 83 1014.9
20260904230744 70 0 0.0 0.0 0.00 0.00 0.00 84 1014.9
20260904225744 70 180 0.0 1.0 0.00 0.00 0.00 82 1014.6
20260904224742 71 19 1.0 2.0 0.00 0.00 0.00 81 1014.9
20260904223737 71 15 0.0 1.0 0.00 0.00 0.00 80 1014.9
20260904222734 71 37 0.0 3.0 0.00 0.00 0.00 79 1014.7
20260904221735 71 0 2.0 4.0 0.00 0.00 0.00 77 1014.8
20260904220730 72 50 2.0 3.0 0.00 0.00 0.00 77 1014.8
20260904215731 72 10 0.0 4.0 0.00 0.00 0.00 76 1015.0
20260904214727 73 325 5.0 6.0 0.00 0.00 0.00 74 1014.8
20260904213727 74 348 4.0 6.0 0.00 0.00 0.00 73 1014.9
20260904212724 75 349 4.0 6.0 0.00 0.00 0.00 74 1014.9
20260904211719 75 324 3.0 7.0 0.00 0.00 0.00 74 1014.8
20260904210714 75 55 3.0 6.0 0.00 0.00 0.00 73 1014.9
20260904205711 76 354 3.0 8.0 0.00 0.00 0.00 73 1014.6
20260904204709 75 57 2.0 6.0 0.00 0.00 0.00 75 1014.9
20260904203707 77 249 2.0 3.0 0.00 0.00 0.00 74 1014.9
20260904202705 75 323 3.0 7.0 0.00 0.00 0.00 73 1014.9
20260904201701 76 339 1.0 3.0 0.00 0.00 0.00 74 1014.7
20260904200702 76 1 5.0 9.0 0.00 0.00 0.00 71 1015.1
20260904195701 74 7 4.0 6.0 0.00 0.00 0.00 75 1015.3
20260904194701 74 0 7.0 8.0 0.00 0.00 0.00 75 1015.4
20260904193656 74 53 2.0 10.0 0.00 0.00 0.00 76 1015.5
20260904192653 76 17 4.0 10.0 0.00 0.00 0.00 74 1015.6
20260904191651 76 359 4.0 4.0 0.00 0.00 0.00 73 1015.4
20260904190649 75 332 2.0 4.0 0.00 0.00 0.00 76 1015.6
20260904185647 74 347 4.0 6.0 0.00 0.00 0.00 75 1016.0
20260904184645 75 18 0.0 5.0 0.00 0.00 0.00 76 1015.8
20260904183643 75 343 3.0 4.0 0.00 0.00 0.00 78 1016.0
20260904182638 74 271 1.0 6.0 0.00 0.00 0.00 75 1016.4
20260904181635 75 75 1.0 5.0 0.00 0.00 0.00 75 1016.3
20260904180630 75 196 2.0 3.0 0.00 0.00 0.00 75 1016.4
20260904175631 75 53 5.0 7.0 0.00 0.00 0.00 76 1016.3
20260904174629 75 286 3.0 6.0 0.00 0.00 0.00 74 1016.4
20260904173627 74 10 4.0 11.0 0.00 0.00 0.00 74 1016.5
20260904172624 74 338 2.0 7.0 0.00 0.00 0.00 78 1016.6
20260904171624 73 0 5.0 6.0 0.00 0.00 0.00 77 1016.7
20260904170622 72 318 3.0 8.0 0.00 0.00 0.00 79 1016.7
20260904165621 74 59 6.0 9.0 0.00 0.00 0.00 78 1016.7
20260904164621 75 55 8.0 8.0 0.00 0.00 0.00 78 1016.8
20260904163618 73 305 3.0 9.0 0.00 0.00 0.00 79 1016.9
20260904162613 73 349 6.0 6.0 0.00 0.00 0.00 79 1016.6
20260904161609 72 292 2.0 8.0 0.00 0.00 0.00 79 1016.9
20260904160606 73 299 5.0 9.0 0.00 0.00 0.00 79 1016.7
20260904155601 74 311 3.0 9.0 0.00 0.00 0.00 76 1016.5
20260904154601 75 57 4.0 4.0 0.00 0.00 0.00 77 1016.7
20260904153601 73 329 2.0 6.0 0.00 0.00 0.00 78 1016.8
20260904152559 72 310 0.0 6.0 0.00 0.00 0.00 82 1016.8
20260904151555 71 353 1.0 9.0 0.00 0.00 0.00 79 1016.9
20260904150555 73 344 2.0 5.0 0.00 0.00 0.00 81 1016.5
20260904145554 72 317 5.0 9.0 0.00 0.00 0.00 83 1016.6
20260904144552 73 346 5.0 7.0 0.00 0.00 0.00 82 1016.6
20260904143549 73 40 5.0 8.0 0.00 0.00 0.00 86 1016.9
20260904142548 72 27 3.0 8.0 0.00 0.00 0.00 86 1016.9
20260904141543 73 350 4.0 5.0 0.00 0.00 0.00 85 1016.9
20260904140539 73 327 1.0 6.0 0.00 0.00 0.00 85 1016.9
20260904135538 73 55 3.0 5.0 0.00 0.00 0.00 80 1016.6
20260904134536 72 275 3.0 5.0 0.00 0.00 0.00 82 1016.5
20260904133537 73 331 3.0 4.0 0.00 0.00 0.00 83 1016.4
20260904132533 73 336 2.0 3.0 0.00 0.00 0.00 85 1016.5
20260904131533 73 89 2.0 3.0 0.00 0.00 0.00 86 1016.4
20260904130528 73 1 1.0 3.0 0.00 0.00 0.00 88 1016.0
20260904125525 72 358 2.0 4.0 0.00 0.00 0.00 88 1016.4
20260904124521 72 221 0.0 3.0 0.00 0.00 0.00 90 1016.4
20260904123516 72 306 2.0 3.0 0.00 0.00 0.00 90 1016.5
20260904122513 70 98 0.0 5.0 0.00 0.00 0.00 93 1016.5
20260904121508 71 4 6.0 7.0 0.00 0.00 0.00 91 1016.5
20260904120506 69 275 1.0 4.0 0.00 0.00 0.00 97 1016.0
20260904115503 68 347 2.0 3.0 0.00 0.00 0.00 98 1016.1
20260904114457 69 326 1.0 4.0 0.00 0.00 0.00 97 1016.4
20260904113452 69 256 1.0 3.0 0.00 0.00 0.00 97 1016.6
20260904112447 67 257 2.0 2.0 0.00 0.00 0.00 99 1016.4
20260904111444 66 315 0.0 2.0 0.00 0.00 0.00 99 1016.4
20260904110445 66 73 1.0 2.0 0.00 0.00 0.00 99 1016.3
20260904105441 66 243 0.0 3.0 0.00 0.00 0.00 99 1016.1
20260904104436 66 307 3.0 4.0 0.00 0.00 0.00 99 1015.9
20260904103434 66 227 0.0 2.0 0.00 0.00 0.00 99 1015.9
20260904102431 66 248 0.0 2.0 0.00 0.00 0.00 99 1015.7
20260904101429 67 19 0.0 2.0 0.00 0.00 0.00 99 1015.8
20260904100426 67 66 0.0 9.0 0.00 0.00 0.00 99 1015.9
20260904095421 67 317 2.0 10.0 0.00 0.00 0.00 99 1015.9
20260904094417 68 333 1.0 3.0 0.00 0.00 0.00 99 1015.8
20260904093413 67 349 0.0 4.0 0.00 0.00 0.00 99 1015.8
20260904092411 68 197 0.0 3.0 0.00 0.00 0.00 99 1015.9
20260904091408 68 65 1.0 2.0 0.00 0.00 0.00 99 1016.0
20260904090405 68 157 2.0 4.0 0.00 0.00 0.00 99 1015.7
20260904085401 67 206 1.0 2.0 0.00 0.00 0.00 99 1016.0
20260904084357 67 314 0.0 2.0 0.00 0.00 0.00 99 1015.6
20260904083355 68 214 0.0 3.0 0.00 0.00 0.00 99 1015.4
20260904082351 68 1 3.0 3.0 0.00 0.00 0.00 99 1015.5
20260904081347 68 288 2.0 3.0 0.00 0.00 0.00 99 1015.3
20260904080344 68 257 2.0 2.0 0.00 0.00 0.00 99 1015.4
20260904075341 67 182 0.0 2.0 0.00 0.00 0.00 99 1015.4
20260904074340 67 88 1.0 1.0 0.00 0.00 0.00 99 1015.2
20260904073337 67 63 0.0 1.0 0.00 0.00 0.00 99 1014.9
20260904072332 67 135 0.0 2.0 0.00 0.00 0.00 99 1015.0
20260904071329 67 147 0.0 2.0 0.00 0.00 0.00 99 1015.1
20260904070328 67 160 0.0 1.0 0.00 0.00 0.00 99 1015.0
20260904065326 67 133 0.0 2.0 0.00 0.00 0.00 99 1014.9
20260904064322 68 170 0.0 2.0 0.00 0.00 0.00 99 1014.9
20260904063320 68 186 0.0 1.0 0.00 0.00 0.00 99 1014.8
20260904062317 67 139 0.0 2.0 0.00 0.00 0.00 99 1014.7
20260904061314 67 147 0.0 2.0 0.00 0.00 0.00 99 1014.8
20260904060311 67 181 0.0 2.0 0.00 0.00 0.00 99 1014.7
20260904055307 67 133 1.0 3.0 0.00 0.00 0.00 99 1014.8
20260904054304 67 113 2.0 2.0 0.00 0.00 0.00 99 1015.0
20260904053259 67 311 0.0 3.0 0.00 0.00 0.00 99 1015.3
20260904052257 68 56 0.0 1.0 0.00 0.00 0.00 99 1015.3
20260904051254 68 182 1.0 3.0 0.00 0.00 0.00 99 1015.5
20260904050252 68 265 0.0 2.0 0.00 0.00 0.00 99 1015.3
20260904045253 68 219 0.0 3.0 0.00 0.00 0.00 99 1015.2
20260904044250 69 266 2.0 2.0 0.00 0.00 0.00 99 1015.4
20260904043248 69 197 0.0 3.0 0.00 0.00 0.00 99 1015.1
20260904042245 69 195 0.0 1.0 0.00 0.00 0.00 99 1015.4
20260904041241 69 356 0.0 1.0 0.00 0.00 0.00 99 1015.2
20260904040238 69 307 0.0 1.0 0.00 0.00 0.00 99 1015.6
20260904035235 70 234 0.0 3.0 0.00 0.26 0.26 99 1015.6
20260904034235 70 246 0.0 3.0 0.00 0.26 0.26 99 1015.7
20260904033233 70 211 2.0 4.0 0.00 0.26 0.26 99 1015.9